Location: Newark
(13.8117°N, 3.6025°W)
Time: 19:06:08
(UTC+00:00)

Explorer 11/Cluster Stage 4 - Pass Details

Date: 25 August 2019
Orbit: 467 x 1259 km, 28.8° (Epoch: 17 October)

Event Time Altitude Azimuth Distance (km) Brightness Sun altitude
Rises 07:17:29 0° 238° (WSW) 3,443 9.3 17.2°
Reaches altitude 10° 07:19:51 10° 236° (SW) 2,618 8.8 17.7°
Maximum altitude 07:26:20 77° 151° (SSE) 1,096 7.7 19.3°
Drops below altitude 10° 07:34:11 10° 66° (ENE) 3,128 11.3 21.2°
Sets 07:37:13 0° 65° (ENE) 4,150 11.5 21.9°
